User: anonymous
Location: Unspecified
(0.0000°N, 0.0000°E)
Time: 20:59:10
(UTC+02:00)
Language:

BREEZE-M DEB (TANK) - Orbit

View from above orbital plane
View from above orbital plane
View from above satellite
View from above satellite

Ground track
Ground track

The orbit data is extracted from the following two-line orbital elements,

1 33374U 08044B   14106.12448684  .00001805  00000-0  68322-3 0  6024
2 33374 049.4726 013.9987 5449272 111.8734 012.6393 04.83770456 97733
Epoch (UTC): 16 April 2014 02:59:15
Eccentricity: 0.5449272
inclination: 49.4726°
perigee height: 342 km
apogee height: 16436 km
right ascension of ascending node: 13.9987°
argument of perigee: 111.8734°
revolutions per day: 4.83770456
mean anomaly at epoch: 12.6393°
orbit number at epoch: 9773

The dashed part of the orbit path shows where the satellite is in the earth's shadow,  

DLR